"Sample Date","Sample Time","Sample Value","Units","Flow Rate","Sample Interval","Number Channels","Micron Size 0","Counts/Channel 0","Micron Size 1","Counts/Channel 1","Micron Size 2","Counts/Channel 2","Micron Size 3","Counts/Channel 3","Micron Size 4","Counts/Channel 4","Micron Size 5","Counts/Channel 5","Micron Size 6","Counts/Channel 6","Micron Size 7","Counts/Channel 7","Micron Size 8","Counts/Channel 8","Micron Size 9","Counts/Channel 9","Micron Size 10","Counts/Channel 10","Micron Size 11","Counts/Channel 11","Micron Size 12","Counts/Channel 12","Micron Size 13","Counts/Channel 13","Micron Size 14","Counts/Channel 14","Micron Size 15","Counts/Channel 15","Micron Size 16","Counts/Channel 16","Micron Size 17","Counts/Channel 17","Micron Size 18","Counts/Channel 18","Micron Size 19","Counts/Channel 19","Micron Size 20","Counts/Channel 20","Micron Size 21","Counts/Channel 21","Micron Size 22","Counts/Channel 22","Micron Size 23","Counts/Channel 23","Micron Size 24","Counts/Channel 24","Micron Size 25","Counts/Channel 25","Micron Size 26","Counts/Channel 26","Micron Size 27","Counts/Channel 27","Micron Size 28","Counts/Channel 28","Micron Size 29","Counts/Channel 29","Micron Size 30","Counts/Channel 30","Micron Size 31","Counts/Channel 31"
"03/06/08","14:00:02",37814.000,"cc",28324.555,6.00,6,0.100,34654.000,0.200,2756.000,0.300,326.000,0.500,75.000,1.000,3.000,5.000,0
"03/06/08","14:00:08",37910.000,"cc",28307.393,6.00,6,0.100,34561.000,0.200,2915.000,0.300,364.000,0.500,68.000,1.000,2.000,5.000,0
"03/06/08","14:00:14",37354.000,"cc",28284.988,6.00,6,0.100,34152.000,0.200,2784.000,0.300,355.000,0.500,61.000,1.000,2.000,5.000,0
"03/06/08","14:00:20",37725.000,"cc",28348.834,6.00,6,0.100,34422.000,0.200,2870.000,0.300,369.000,0.500,61.000,1.000,3.000,5.000,0
"03/06/08","14:00:26",38055.000,"cc",28278.844,6.00,6,0.100,34729.000,0.200,2877.000,0.300,364.000,0.500,81.000,1.000,4.000,5.000,0
"03/06/08","14:00:32",37960.000,"cc",28265.592,6.00,6,0.100,34549.000,0.200,2906.000,0.300,415.000,0.500,86.000,1.000,4.000,5.000,0
"03/06/08","14:00:38",38076.000,"cc",28345.320,6.00,6,0.100,34774.000,0.200,2859.000,0.300,370.000,0.500,73.000,1.000,0,5.000,0
"03/06/08","14:00:44",37442.000,"cc",28400.223,6.00,6,0.100,34310.000,0.200,2717.000,0.300,334.000,0.500,79.000,1.000,2.000,5.000,0
"03/06/08","14:00:50",37817.000,"cc",28377.879,6.00,6,0.100,34644.000,0.200,2813.000,0.300,294.000,0.500,63.000,1.000,3.000,5.000,0
"03/06/08","14:00:56",36909.000,"cc",28288.961,6.00,6,0.100,33907.000,0.200,2620.000,0.300,325.000,0.500,50.000,1.000,7.000,5.000,0
"03/06/08","14:01:02",37531.000,"cc",28285.053,6.00,6,0.100,34281.000,0.200,2805.000,0.300,372.000,0.500,70.000,1.000,3.000,5.000,0
"03/06/08","14:01:08",37656.000,"cc",28319.744,6.00,6,0.100,34348.000,0.200,2842.000,0.300,401.000,0.500,64.000,1.000,1.000,5.000,0
"03/06/08","14:01:14",37618.000,"cc",28285.240,6.00,6,0.100,34432.000,0.200,2806.000,0.300,320.000,0.500,59.000,1.000,1.000,5.000,0
"03/06/08","14:01:20",37753.000,"cc",28338.565,6.00,6,0.100,34664.000,0.200,2679.000,0.300,349.000,0.500,61.000,1.000,0,5.000,0
"03/06/08","14:01:26",37647.000,"cc",28359.047,6.00,6,0.100,34422.000,0.200,2797.000,0.300,346.000,0.500,81.000,1.000,1.000,5.000,0
"03/06/08","14:01:32",37545.000,"cc",28335.445,6.00,6,0.100,34499.000,0.200,2681.000,0.300,315.000,0.500,44.000,1.000,6.000,5.000,0
"03/06/08","14:01:38",37540.000,"cc",28232.486,6.00,6,0.100,34415.000,0.200,2730.000,0.300,341.000,0.500,53.000,1.000,1.000,5.000,0
"03/06/08","14:01:44",37691.000,"cc",28369.822,6.00,6,0.100,34315.000,0.200,2921.000,0.300,365.000,0.500,88.000,1.000,2.000,5.000,0
"03/06/08","14:01:50",37774.000,"cc",28334.668,6.00,6,0.100,34536.000,0.200,2793.000,0.300,375.000,0.500,69.000,1.000,1.000,5.000,0
"03/06/08","14:01:56",37950.000,"cc",28427.055,6.00,6,0.100,34721.000,0.200,2831.000,0.300,320.000,0.500,75.000,1.000,3.000,5.000,0
"03/06/08","14:02:02",37776.000,"cc",28301.914,6.00,6,0.100,34491.000,0.200,2844.000,0.300,369.000,0.500,72.000,1.000,0,5.000,0
"03/06/08","14:02:08",37257.000,"cc",28335.400,6.00,6,0.100,34373.000,0.200,2577.000,0.300,271.000,0.500,34.000,1.000,2.000,5.000,0
"03/06/08","14:02:14",37562.000,"cc",28330.719,6.00,6,0.100,34289.000,0.200,2846.000,0.300,358.000,0.500,66.000,1.000,3.000,5.000,0
"03/06/08","14:02:20",37951.000,"cc",28261.385,6.00,6,0.100,34735.000,0.200,2775.000,0.300,360.000,0.500,76.000,1.000,5.000,5.000,0
"03/06/08","14:02:26",37808.000,"cc",28271.863,6.00,6,0.100,34567.000,0.200,2803.000,0.300,357.000,0.500,80.000,1.000,1.000,5.000,0
"03/06/08","14:02:32",38474.000,"cc",28277.459,6.00,6,0.100,34908.000,0.200,3053.000,0.300,413.000,0.500,92.000,1.000,8.000,5.000,0
"03/06/08","14:02:38",38304.000,"cc",28296.631,6.00,6,0.100,35206.000,0.200,2715.000,0.300,337.000,0.500,45.000,1.000,1.000,5.000,0
"03/06/08","14:02:44",37881.000,"cc",28303.613,6.00,6,0.100,34650.000,0.200,2787.000,0.300,366.000,0.500,76.000,1.000,2.000,5.000,0
"03/06/08","14:02:50",37939.000,"cc",28413.598,6.00,6,0.100,34603.000,0.200,2917.000,0.300,348.000,0.500,71.000,1.000,0,5.000,0
"03/06/08","14:02:56",38196.000,"cc",28279.834,6.00,6,0.100,34909.000,0.200,2847.000,0.300,361.000,0.500,75.000,1.000,4.000,5.000,0
"03/06/08","14:03:02",38028.000,"cc",28324.891,6.00,6,0.100,34705.000,0.200,2901.000,0.300,360.000,0.500,58.000,1.000,4.000,5.000,0
"03/06/08","14:03:08",37585.000,"cc",28362.402,6.00,6,0.100,34399.000,0.200,2823.000,0.300,308.000,0.500,53.000,1.000,2.000,5.000,0
"03/06/08","14:03:14",38035.000,"cc",28293.270,6.00,6,0.100,34814.000,0.200,2809.000,0.300,340.000,0.500,67.000,1.000,5.000,5.000,0
"03/06/08","14:03:20",37953.000,"cc",28206.977,6.00,6,0.100,34784.000,0.200,2725.000,0.300,369.000,0.500,74.000,1.000,1.000,5.000,0
"03/06/08","14:03:26",38342.000,"cc",28346.426,6.00,6,0.100,34961.000,0.200,2889.000,0.300,398.000,0.500,93.000,1.000,1.000,5.000,0
"03/06/08","14:03:32",37898.000,"cc",28410.164,6.00,6,0.100,34673.000,0.200,2797.000,0.300,338.000,0.500,87.000,1.000,3.000,5.000,0
"03/06/08","14:03:38",38098.000,"cc",28349.145,6.00,6,0.100,34857.000,0.200,2806.000,0.300,358.000,0.500,75.000,1.000,2.000,5.000,0
"03/06/08","14:03:44",38140.000,"cc",28326.654,6.00,6,0.100,34920.000,0.200,2769.000,0.300,373.000,0.500,76.000,1.000,2.000,5.000,0
"03/06/08","14:03:50",38405.000,"cc",28259.432,6.00,6,0.100,35059.000,0.200,2853.000,0.300,411.000,0.500,78.000,1.000,4.000,5.000,0
"03/06/08","14:03:56",38132.000,"cc",28310.672,6.00,6,0.100,34924.000,0.200,2739.000,0.300,387.000,0.500,77.000,1.000,5.000,5.000,0
"03/06/08","14:04:02",37714.000,"cc",28257.998,6.00,6,0.100,34489.000,0.200,2766.000,0.300,383.000,0.500,74.000,1.000,2.000,5.000,0
"03/06/08","14:04:08",37593.000,"cc",28321.022,6.00,6,0.100,34439.000,0.200,2723.000,0.300,360.000,0.500,69.000,1.000,2.000,5.000,0
"03/06/08","14:04:14",37452.000,"cc",28342.674,6.00,6,0.100,34352.000,0.200,2770.000,0.300,292.000,0.500,34.000,1.000,4.000,5.000,0
"03/06/08","14:04:20",37548.000,"cc",28355.688,6.00,6,0.100,34412.000,0.200,2716.000,0.300,359.000,0.500,58.000,1.000,3.000,5.000,0
"03/06/08","14:04:26",37912.000,"cc",28291.045,6.00,6,0.100,34674.000,0.200,2812.000,0.300,363.000,0.500,62.000,1.000,1.000,5.000,0
"03/06/08","14:04:32",38175.000,"cc",28306.102,6.00,6,0.100,34787.000,0.200,2886.000,0.300,406.000,0.500,94.000,1.000,2.000,5.000,0
"03/06/08","14:04:38",37929.000,"cc",28372.891,6.00,6,0.100,34797.000,0.200,2720.000,0.300,340.000,0.500,68.000,1.000,3.000,5.000,1.000
"03/06/08","14:04:44",37828.000,"cc",28353.824,6.00,6,0.100,34637.000,0.200,2742.000,0.300,376.000,0.500,73.000,1.000,0,5.000,0
"03/06/08","14:04:50",37764.000,"cc",28314.381,6.00,6,0.100,34548.000,0.200,2782.000,0.300,359.000,0.500,74.000,1.000,1.000,5.000,0
"03/06/08","14:04:56",38069.000,"cc",28178.359,6.00,6,0.100,34779.000,0.200,2857.000,0.300,355.000,0.500,74.000,1.000,4.000,5.000,0
"03/06/08","14:05:02",38267.000,"cc",28318.045,6.00,6,0.100,34880.000,0.200,2896.000,0.300,384.000,0.500,103.000,1.000,4.000,5.000,0
"03/06/08","14:05:08",38373.000,"cc",28394.008,6.00,6,0.100,35150.000,0.200,2812.000,0.300,340.000,0.500,70.000,1.000,1.000,5.000,0
"03/06/08","14:05:14",37989.000,"cc",28365.797,6.00,6,0.100,34774.000,0.200,2824.000,0.300,326.000,0.500,63.000,1.000,2.000,5.000,0
"03/06/08","14:05:20",37356.000,"cc",28356.315,6.00,6,0.100,34534.000,0.200,2551.000,0.300,239.000,0.500,29.000,1.000,3.000,5.000,0
"03/06/08","14:05:26",38056.000,"cc",28259.451,6.00,6,0.100,34896.000,0.200,2765.000,0.300,343.000,0.500,50.000,1.000,2.000,5.000,0
"03/06/08","14:05:32",37808.000,"cc",28340.660,6.00,6,0.100,34766.000,0.200,2690.000,0.300,298.000,0.500,54.000,1.000,0,5.000,0
"03/06/08","14:05:38",38214.000,"cc",28315.586,6.00,6,0.100,35059.000,0.200,2771.000,0.300,319.000,0.500,58.000,1.000,7.000,5.000,0
"03/06/08","14:05:44",37895.000,"cc",28266.131,6.00,6,0.100,34840.000,0.200,2694.000,0.300,315.000,0.500,45.000,1.000,1.000,5.000,0
"03/06/08","14:05:50",38174.000,"cc",28356.549,6.00,6,0.100,34912.000,0.200,2868.000,0.300,327.000,0.500,62.000,1.000,5.000,5.000,0
"03/06/08","14:05:56",38745.000,"cc",28291.285,6.00,6,0.100,35572.000,0.200,2781.000,0.300,315.000,0.500,76.000,1.000,1.000,5.000,0
"03/06/08","14:06:02",38212.000,"cc",28284.604,6.00,6,0.100,34990.000,0.200,2763.000,0.300,369.000,0.500,85.000,1.000,5.000,5.000,0
"03/06/08","14:06:08",37911.000,"cc",28324.199,6.00,6,0.100,34732.000,0.200,2764.000,0.300,349.000,0.500,66.000,1.000,0,5.000,0
"03/06/08","14:06:14",38457.000,"cc",28304.434,6.00,6,0.100,35176.000,0.200,2843.000,0.300,357.000,0.500,77.000,1.000,4.000,5.000,0
"03/06/08","14:06:20",38118.000,"cc",28300.543,6.00,6,0.100,34759.000,0.200,2862.000,0.300,395.000,0.500,98.000,1.000,4.000,5.000,0
"03/06/08","14:06:26",38306.000,"cc",28284.467,6.00,6,0.100,34999.000,0.200,2885.000,0.300,344.000,0.500,75.000,1.000,3.000,5.000,0
"03/06/08","14:06:32",38590.000,"cc",28319.354,6.00,6,0.100,35364.000,0.200,2831.000,0.300,318.000,0.500,75.000,1.000,2.000,5.000,0
"03/06/08","14:06:38",38411.000,"cc",28364.902,6.00,6,0.100,35206.000,0.200,2818.000,0.300,308.000,0.500,61.000,1.000,13.000,5.000,5.000
"03/06/08","14:06:44",38690.000,"cc",28343.727,6.00,6,0.100,35564.000,0.200,2742.000,0.300,325.000,0.500,55.000,1.000,4.000,5.000,0
"03/06/08","14:06:50",38471.000,"cc",28305.115,6.00,6,0.100,35223.000,0.200,2812.000,0.300,361.000,0.500,72.000,1.000,3.000,5.000,0
"03/06/08","14:06:56",38378.000,"cc",28317.066,6.00,6,0.100,35139.000,0.200,2870.000,0.300,309.000,0.500,59.000,1.000,1.000,5.000,0
"03/06/08","14:07:02",38649.000,"cc",28329.008,6.00,6,0.100,35550.000,0.200,2720.000,0.300,331.000,0.500,46.000,1.000,2.000,5.000,0
"03/06/08","14:07:08",38336.000,"cc",28312.516,6.00,6,0.100,35089.000,0.200,2883.000,0.300,314.000,0.500,49.000,1.000,1.000,5.000,0
"03/06/08","14:07:14",38511.000,"cc",28280.658,6.00,6,0.100,35373.000,0.200,2751.000,0.300,315.000,0.500,71.000,1.000,1.000,5.000,0
"03/06/08","14:07:20",38849.000,"cc",28362.897,6.00,6,0.100,35502.000,0.200,2910.000,0.300,359.000,0.500,77.000,1.000,1.000,5.000,0
"03/06/08","14:07:26",38772.000,"cc",28267.992,6.00,6,0.100,35600.000,0.200,2822.000,0.300,305.000,0.500,44.000,1.000,1.000,5.000,0
"03/06/08","14:07:32",38450.000,"cc",28252.963,6.00,6,0.100,35312.000,0.200,2755.000,0.300,320.000,0.500,59.000,1.000,4.000,5.000,0
"03/06/08","14:07:38",38712.000,"cc",28391.611,6.00,6,0.100,35604.000,0.200,2738.000,0.300,321.000,0.500,47.000,1.000,2.000,5.000,0
"03/06/08","14:07:44",39026.000,"cc",28227.328,6.00,6,0.100,35739.000,0.200,2822.000,0.300,379.000,0.500,80.000,1.000,6.000,5.000,0
"03/06/08","14:07:50",38636.000,"cc",28319.545,6.00,6,0.100,35395.000,0.200,2841.000,0.300,333.000,0.500,65.000,1.000,2.000,5.000,0
"03/06/08","14:07:56",38926.000,"cc",28387.479,6.00,6,0.100,35543.000,0.200,2932.000,0.300,378.000,0.500,71.000,1.000,2.000,5.000,0
"03/06/08","14:08:02",38735.000,"cc",28360.141,6.00,6,0.100,35489.000,0.200,2805.000,0.300,376.000,0.500,60.000,1.000,5.000,5.000,0
"03/06/08","14:08:08",38922.000,"cc",28284.285,6.00,6,0.100,35493.000,0.200,2943.000,0.300,395.000,0.500,87.000,1.000,4.000,5.000,0
"03/06/08","14:08:14",38721.000,"cc",28322.691,6.00,6,0.100,35420.000,0.200,2881.000,0.300,341.000,0.500,78.000,1.000,1.000,5.000,0
"03/06/08","14:08:20",38878.000,"cc",28341.758,6.00,6,0.100,35817.000,0.200,2701.000,0.300,312.000,0.500,46.000,1.000,2.000,5.000,0
"03/06/08","14:08:26",38704.000,"cc",28333.209,6.00,6,0.100,35576.000,0.200,2760.000,0.300,316.000,0.500,51.000,1.000,1.000,5.000,0
"03/06/08","14:08:32",38198.000,"cc",28345.162,6.00,6,0.100,35005.000,0.200,2826.000,0.300,306.000,0.500,58.000,1.000,3.000,5.000,0
"03/06/08","14:08:38",38286.000,"cc",28366.703,6.00,6,0.100,35200.000,0.200,2741.000,0.300,305.000,0.500,40.000,1.000,0,5.000,0
"03/06/08","14:08:44",38088.000,"cc",28332.760,6.00,6,0.100,35039.000,0.200,2744.000,0.300,266.000,0.500,34.000,1.000,5.000,5.000,0
"03/06/08","14:08:50",38300.000,"cc",28316.055,6.00,6,0.100,35253.000,0.200,2678.000,0.300,313.000,0.500,53.000,1.000,3.000,5.000,0
"03/06/08","14:08:56",38461.000,"cc",28307.606,6.00,6,0.100,35377.000,0.200,2690.000,0.300,325.000,0.500,66.000,1.000,3.000,5.000,0
"03/06/08","14:09:02",38566.000,"cc",28258.315,6.00,6,0.100,35405.000,0.200,2790.000,0.300,300.000,0.500,67.000,1.000,4.000,5.000,0
"03/06/08","14:09:08",38206.000,"cc",28325.604,6.00,6,0.100,35221.000,0.200,2640.000,0.300,305.000,0.500,40.000,1.000,0,5.000,0
"03/06/08","14:09:14",38500.000,"cc",28296.871,6.00,6,0.100,35463.000,0.200,2746.000,0.300,257.000,0.500,33.000,1.000,1.000,5.000,0
"03/06/08","14:09:20",38799.000,"cc",28334.744,6.00,6,0.100,35646.000,0.200,2794.000,0.300,316.000,0.500,42.000,1.000,1.000,5.000,0
"03/06/08","14:09:26",39118.000,"cc",28281.805,6.00,6,0.100,35933.000,0.200,2778.000,0.300,348.000,0.500,58.000,1.000,1.000,5.000,0
"03/06/08","14:09:32",38295.000,"cc",28349.764,6.00,6,0.100,35292.000,0.200,2668.000,0.300,286.000,0.500,47.000,1.000,2.000,5.000,0
"03/06/08","14:09:38",39395.000,"cc",28254.502,6.00,6,0.100,35995.000,0.200,2965.000,0.300,348.000,0.500,83.000,1.000,4.000,5.000,0
"03/06/08","14:09:44",38943.000,"cc",28307.982,6.00,6,0.100,35610.000,0.200,2894.000,0.300,360.000,0.500,74.000,1.000,5.000,5.000,0
"03/06/08","14:09:50",39224.000,"cc",28346.883,6.00,6,0.100,36076.000,0.200,2801.000,0.300,283.000,0.500,61.000,1.000,3.000,5.000,0
"03/06/08","14:09:56",38729.000,"cc",28307.041,6.00,6,0.100,35512.000,0.200,2804.000,0.300,345.000,0.500,67.000,1.000,1.000,5.000,0
"03/06/08","14:10:02",38357.000,"cc",28317.740,6.00,6,0.100,35281.000,0.200,2693.000,0.300,325.000,0.500,56.000,1.000,2.000,5.000,0
"03/06/08","14:10:08",38429.000,"cc",28328.227,6.00,6,0.100,35317.000,0.200,2765.000,0.300,299.000,0.500,47.000,1.000,1.000,5.000,0
"03/06/08","14:10:14",38890.000,"cc",28288.424,6.00,6,0.100,35641.000,0.200,2837.000,0.300,342.000,0.500,67.000,1.000,3.000,5.000,0
"03/06/08","14:10:20",38779.000,"cc",28307.334,6.00,6,0.100,35713.000,0.200,2729.000,0.300,296.000,0.500,40.000,1.000,1.000,5.000,0
"03/06/08","14:10:26",38260.000,"cc",28269.469,6.00,6,0.100,35107.000,0.200,2802.000,0.300,304.000,0.500,44.000,1.000,3.000,5.000,0
"03/06/08","14:10:32",38790.000,"cc",28288.574,6.00,6,0.100,35500.000,0.200,2889.000,0.300,321.000,0.500,77.000,1.000,3.000,5.000,0
"03/06/08","14:10:38",38873.000,"cc",28404.293,6.00,6,0.100,35708.000,0.200,2797.000,0.300,301.000,0.500,65.000,1.000,2.000,5.000,0
"03/06/08","14:10:44",38306.000,"cc",28366.852,6.00,6,0.100,35156.000,0.200,2774.000,0.300,320.000,0.500,53.000,1.000,3.000,5.000,0
"03/06/08","14:10:50",38655.000,"cc",28278.848,6.00,6,0.100,35506.000,0.200,2751.000,0.300,358.000,0.500,36.000,1.000,4.000,5.000,0
"03/06/08","14:10:56",38345.000,"cc",28301.039,6.00,6,0.100,35141.000,0.200,2806.000,0.300,341.000,0.500,53.000,1.000,4.000,5.000,0
"03/06/08","14:11:02",38235.000,"cc",28325.340,6.00,6,0.100,35138.000,0.200,2716.000,0.300,316.000,0.500,65.000,1.000,0,5.000,0
"03/06/08","14:11:08",38461.000,"cc",28290.629,6.00,6,0.100,35276.000,0.200,2766.000,0.300,361.000,0.500,56.000,1.000,2.000,5.000,0
"03/06/08","14:11:14",38442.000,"cc",28257.867,6.00,6,0.100,35161.000,0.200,2799.000,0.300,393.000,0.500,86.000,1.000,3.000,5.000,0
"03/06/08","14:11:20",38789.000,"cc",28357.674,6.00,6,0.100,35350.000,0.200,2973.000,0.300,371.000,0.500,90.000,1.000,5.000,5.000,0
"03/06/08","14:11:26",38260.000,"cc",28349.652,6.00,6,0.100,35170.000,0.200,2752.000,0.300,290.000,0.500,47.000,1.000,1.000,5.000,0
"03/06/08","14:11:32",38879.000,"cc",28299.395,6.00,6,0.100,35704.000,0.200,2768.000,0.300,345.000,0.500,60.000,1.000,2.000,5.000,0
"03/06/08","14:11:38",39100.000,"cc",28293.533,6.00,6,0.100,35786.000,0.200,2894.000,0.300,354.000,0.500,59.000,1.000,7.000,5.000,0
"03/06/08","14:11:44",38483.000,"cc",28353.559,6.00,6,0.100,35256.000,0.200,2827.000,0.300,339.000,0.500,59.000,1.000,2.000,5.000,0
"03/06/08","14:11:50",38746.000,"cc",28305.738,6.00,6,0.100,35464.000,0.200,2862.000,0.300,342.000,0.500,76.000,1.000,2.000,5.000,0
"03/06/08","14:11:56",38310.000,"cc",28307.670,6.00,6,0.100,35234.000,0.200,2728.000,0.300,308.000,0.500,38.000,1.000,2.000,5.000,0
"03/06/08","14:12:02",38727.000,"cc",28345.781,6.00,6,0.100,35546.000,0.200,2781.000,0.300,319.000,0.500,78.000,1.000,3.000,5.000,0
"03/06/08","14:12:08",38535.000,"cc",28260.699,6.00,6,0.100,35335.000,0.200,2760.000,0.300,366.000,0.500,73.000,1.000,1.000,5.000,0
"03/06/08","14:12:14",38656.000,"cc",28346.463,6.00,6,0.100,35594.000,0.200,2687.000,0.300,305.000,0.500,65.000,1.000,5.000,5.000,0
"03/06/08","14:12:20",38318.000,"cc",28353.207,6.00,6,0.100,35281.000,0.200,2680.000,0.300,308.000,0.500,47.000,1.000,2.000,5.000,0
"03/06/08","14:12:26",37809.000,"cc",28354.057,6.00,6,0.100,34775.000,0.200,2690.000,0.300,297.000,0.500,40.000,1.000,7.000,5.000,0
"03/06/08","14:12:32",38640.000,"cc",28380.250,6.00,6,0.100,35653.000,0.200,2669.000,0.300,276.000,0.500,41.000,1.000,1.000,5.000,0
"03/06/08","14:12:38",38557.000,"cc",28245.033,6.00,6,0.100,35415.000,0.200,2806.000,0.300,279.000,0.500,50.000,1.000,5.000,5.000,2.000
"03/06/08","14:12:44",38669.000,"cc",28216.510,6.00,6,0.100,35503.000,0.200,2791.000,0.300,332.000,0.500,41.000,1.000,2.000,5.000,0
"03/06/08","14:12:50",38617.000,"cc",28335.580,6.00,6,0.100,35499.000,0.200,2795.000,0.300,273.000,0.500,48.000,1.000,2.000,5.000,0
"03/06/08","14:12:56",38204.000,"cc",28275.283,6.00,6,0.100,35028.000,0.200,2682.000,0.300,409.000,0.500,83.000,1.000,2.000,5.000,0
"03/06/08","14:13:02",38583.000,"cc",28402.432,6.00,6,0.100,35322.000,0.200,2833.000,0.300,350.000,0.500,75.000,1.000,3.000,5.000,0
"03/06/08","14:13:08",38385.000,"cc",28289.844,6.00,6,0.100,35182.000,0.200,2790.000,0.300,336.000,0.500,74.000,1.000,3.000,5.000,0
"03/06/08","14:13:14",38573.000,"cc",28249.275,6.00,6,0.100,35463.000,0.200,2731.000,0.300,318.000,0.500,58.000,1.000,3.000,5.000,0
"03/06/08","14:13:20",38514.000,"cc",28313.746,6.00,6,0.100,35372.000,0.200,2714.000,0.300,357.000,0.500,69.000,1.000,2.000,5.000,0
"03/06/08","14:13:26",38760.000,"cc",28303.992,6.00,6,0.100,35509.000,0.200,2817.000,0.300,362.000,0.500,70.000,1.000,2.000,5.000,0
"03/06/08","14:13:32",39039.000,"cc",28402.398,6.00,6,0.100,35915.000,0.200,2677.000,0.300,374.000,0.500,73.000,1.000,0,5.000,0
"03/06/08","14:13:38",38627.000,"cc",28320.047,6.00,6,0.100,35417.000,0.200,2831.000,0.300,332.000,0.500,44.000,1.000,3.000,5.000,0
"03/06/08","14:13:44",38360.000,"cc",28292.779,6.00,6,0.100,35118.000,0.200,2811.000,0.300,374.000,0.500,53.000,1.000,4.000,5.000,0
"03/06/08","14:13:50",38050.000,"cc",28276.029,6.00,6,0.100,34879.000,0.200,2772.000,0.300,334.000,0.500,64.000,1.000,1.000,5.000,0
"03/06/08","14:13:56",38272.000,"cc",28313.818,6.00,6,0.100,35091.000,0.200,2755.000,0.300,348.000,0.500,71.000,1.000,7.000,5.000,0
"03/06/08","14:14:02",38628.000,"cc",28314.979,6.00,6,0.100,35493.000,0.200,2742.000,0.300,335.000,0.500,55.000,1.000,3.000,5.000,0
"03/06/08","14:14:08",39022.000,"cc",28413.633,6.00,6,0.100,35807.000,0.200,2798.000,0.300,370.000,0.500,45.000,1.000,2.000,5.000,0
"03/06/08","14:14:14",38294.000,"cc",28276.822,6.00,6,0.100,35007.000,0.200,2827.000,0.300,380.000,0.500,76.000,1.000,4.000,5.000,0
"03/06/08","14:14:20",38608.000,"cc",28334.361,6.00,6,0.100,35491.000,0.200,2728.000,0.300,321.000,0.500,66.000,1.000,2.000,5.000,0
"03/06/08","14:14:26",38741.000,"cc",28301.941,6.00,6,0.100,35727.000,0.200,2635.000,0.300,331.000,0.500,46.000,1.000,2.000,5.000,0
"03/06/08","14:14:32",38293.000,"cc",28342.272,6.00,6,0.100,35169.000,0.200,2737.000,0.300,330.000,0.500,52.000,1.000,5.000,5.000,0
"03/06/08","14:14:38",38559.000,"cc",28314.359,6.00,6,0.100,35413.000,0.200,2706.000,0.300,382.000,0.500,58.000,1.000,0,5.000,0
"03/06/08","14:14:44",38608.000,"cc",28317.527,6.00,6,0.100,35366.000,0.200,2804.000,0.300,360.000,0.500,71.000,1.000,7.000,5.000,0
"03/06/08","14:14:50",38117.000,"cc",28319.205,6.00,6,0.100,35065.000,0.200,2643.000,0.300,335.000,0.500,70.000,1.000,4.000,5.000,0
"03/06/08","14:14:56",38371.000,"cc",28252.066,6.00,6,0.100,35291.000,0.200,2706.000,0.300,313.000,0.500,58.000,1.000,3.000,5.000,0
"03/06/08","14:15:02",38240.000,"cc",28184.852,6.00,6,0.100,35084.000,0.200,2713.000,0.300,355.000,0.500,86.000,1.000,2.000,5.000,0
"03/06/08","14:15:08",38428.000,"cc",28331.465,6.00,6,0.100,35369.000,0.200,2687.000,0.300,312.000,0.500,58.000,1.000,2.000,5.000,0
"03/06/08","14:15:14",38858.000,"cc",28367.818,6.00,6,0.100,35641.000,0.200,2743.000,0.300,400.000,0.500,74.000,1.000,0,5.000,0
"03/06/08","14:15:20",38524.000,"cc",28367.711,6.00,6,0.100,35472.000,0.200,2691.000,0.300,312.000,0.500,46.000,1.000,3.000,5.000,0
"03/06/08","14:15:26",38156.000,"cc",28362.813,6.00,6,0.100,35054.000,0.200,2709.000,0.300,337.000,0.500,53.000,1.000,3.000,5.000,0
"03/06/08","14:15:32",38461.000,"cc",28304.791,6.00,6,0.100,35348.000,0.200,2674.000,0.300,355.000,0.500,82.000,1.000,2.000,5.000,0
"03/06/08","14:15:38",38126.000,"cc",28245.936,6.00,6,0.100,35110.000,0.200,2673.000,0.300,278.000,0.500,64.000,1.000,1.000,5.000,0
"03/06/08","14:15:44",38423.000,"cc",28281.400,6.00,6,0.100,35173.000,0.200,2787.000,0.300,395.000,0.500,66.000,1.000,2.000,5.000,0
"03/06/08","14:15:50",38550.000,"cc",28307.699,6.00,6,0.100,35382.000,0.200,2708.000,0.300,388.000,0.500,71.000,1.000,1.000,5.000,0
"03/06/08","14:15:56",38026.000,"cc",28388.119,6.00,6,0.100,35038.000,0.200,2625.000,0.300,323.000,0.500,39.000,1.000,1.000,5.000,0
"03/06/08","14:16:02",38749.000,"cc",28348.207,6.00,6,0.100,35519.000,0.200,2775.000,0.300,382.000,0.500,70.000,1.000,3.000,5.000,0
"03/06/08","14:16:08",37963.000,"cc",28380.201,6.00,6,0.100,34977.000,0.200,2600.000,0.300,329.000,0.500,55.000,1.000,2.000,5.000,0
"03/06/08","14:16:14",38012.000,"cc",28302.330,6.00,6,0.100,35057.000,0.200,2606.000,0.300,312.000,0.500,34.000,1.000,3.000,5.000,0
"03/06/08","14:16:20",38297.000,"cc",28286.918,6.00,6,0.100,35149.000,0.200,2707.000,0.300,366.000,0.500,71.000,1.000,4.000,5.000,0
"03/06/08","14:16:26",38073.000,"cc",28374.215,6.00,6,0.100,34969.000,0.200,2663.000,0.300,376.000,0.500,62.000,1.000,3.000,5.000,0
"03/06/08","14:16:32",38251.000,"cc",28292.732,6.00,6,0.100,35209.000,0.200,2693.000,0.300,307.000,0.500,39.000,1.000,3.000,5.000,0
"03/06/08","14:16:38",38450.000,"cc",28286.273,6.00,6,0.100,35409.000,0.200,2669.000,0.300,318.000,0.500,54.000,1.000,0,5.000,0
"03/06/08","14:16:44",38355.000,"cc",28310.459,6.00,6,0.100,35176.000,0.200,2808.000,0.300,312.000,0.500,57.000,1.000,2.000,5.000,0
"03/06/08","14:16:50",37863.000,"cc",28306.830,6.00,6,0.100,34871.000,0.200,2627.000,0.300,314.000,0.500,50.000,1.000,1.000,5.000,0
"03/06/08","14:16:56",38433.000,"cc",28322.940,6.00,6,0.100,35272.000,0.200,2732.000,0.300,354.000,0.500,74.000,1.000,1.000,5.000,0
"03/06/08","14:17:02",38147.000,"cc",28297.758,6.00,6,0.100,35045.000,0.200,2727.000,0.300,307.000,0.500,66.000,1.000,2.000,5.000,0